Regional Weather Roundup
Issued by NWS

Home | Current Version | Previous Version | Text Only | Print | Product List | Glossary On
Versions: 1 2 3 4 5 6 7 8 9 10 11 12 13 14 15 16 17 18 19 20 21 22 23 24 25 26 27 28 29 30 31 32 33 34 35 36 37 38 39 40 41 42 43 44 45 46 47 48 49 50
511
ASUS44 KJAN 260110
RWRMS

MISSISSIPPI HOURLY WEATHER ROUNDUP
NATIONAL WEATHER SERVICE JACKSON MS
700 PM CST SUN JAN 25 2015

NOTE: "FAIR: INDICATES FEW OR NO CLOUDS BELOW 12,000 FEET WITH NO
SIGNIFICANT WEATHER AND/OR OBSTRUCTIONS TO VISIBILITY.

MSZ001>002-007>008-010>013-018>021-025>028-034>036-260200-
NORTHWEST MISSISSIPPI

CITY           SKY/WX    TMP DP  RH WIND       PRES   REMARKS
CLARKSDALE     CLOUDY    50  39  66 NW17G23   29.88R
CLEVELAND      CLOUDY    51  40  67 NW9G20    29.88R
GREENWOOD      CLOUDY    53  37  54 NW10G21   29.87R
GREENVILLE     CLOUDY    54  35  48 NW14      29.88R
GRENADA        CLOUDY    52  36  54 NW12G24   29.85R
OLIVE BRANCH   CLOUDY    45  39  81 W14G24    29.84R
OXFORD         CLOUDY    48  37  66 NW16G26   29.85R
TUNICA         CLOUDY    46  37  71 NW13G23   29.88R
$$

MSZ003>006-009-014>017-022>024-029>033-037>039-260200-
NORTHEAST MISSISSIPPI

CITY           SKY/WX    TMP DP  RH WIND       PRES   REMARKS
COLUMBUS AFB   CLOUDY    48  43  81 W9        29.83R
CORINTH        MOCLDY    46  43  87 W9        29.79R
STARKVILLE     LGT RAIN  46  45  93 W6        29.83R
TUPELO         CLOUDY    46  42  86 NW3       29.82R
$$

MSZ040-058-260200-
CENTRAL MISSISSIPPI

CITY           SKY/WX    TMP DP  RH WIND       PRES   REMARKS
JACKSON INTL   PTCLDY    59  34  39 NW10      29.86R
JACKSON HAWKNS MOCLDY    58  34  40 W12G23    29.87R
MERIDIAN KEY   CLEAR     56  35  45 W7        29.82R
MERIDIAN NAS   PTCLDY    56  36  47 W14       29.82R
RAYMOND        MOCLDY    57  52  82 MISG      29.88R
VICKSBURG      CLOUDY    58  36  43 NW9       29.90R
$$

MSZ059>079-260200-
SOUTH MISSISSIPPI

CITY           SKY/WX    TMP DP  RH WIND       PRES   REMARKS
BROOKHAVEN     FAIR      57  36  44 W8        29.89R
HATTIESBURG    PTCLDY    59  40  49 SW7       29.84R
MCCOMB         CLEAR     58  39  49 NW7       29.88R
NATCHEZ        CLEAR     57  36  44 NW12G18   29.91R
PINE BELT      MOCLDY    57  37  47 W6        29.85R
$$

MSZ080>082-260200-
COASTAL MISSISSIPPI

CITY           SKY/WX    TMP DP  RH WIND       PRES   REMARKS
BAY ST LOUIS   CLEAR     55  36  47 W8        29.88R
BILOXI         CLEAR     56  44  64 W6        29.86R
PASCAGOULA     CLEAR     56  42  59 W8        29.87R
GULFPORT       CLEAR     57  40  52 W7        29.87R
$$



USA.gov is the U.S. government's official web portal to all federal, state and local government web resources and services.